COSMOS 252 DEB *, 3686

Orbit data source: Space-Track

COSMOS 252 DEB *, 3686 is space debris in LEO originally from a launch on Fri, 01 Nov 1968 UTC launched from the Tyuratam Missile And Space Complex (TTMTR). Debris objects in space refer to the collection of defunct objects orbiting the Earth. Examples of debris include non-operational satellites, rocket bodies, and fragments generated from explosions, collisions, or faulty payload assembly.

Loading next visibility...
COSMOS 252 DEB * details
Identifier
3686, 1968-097AD
Orbit
LEO
Last TLE update1 day ago
Origin
Flag of CISPKO (CIS)
ManufacturerUnknown
MissionSpacecraft
Bus & MotorUnknown
MassUnknown
Launch date (UTC)
1968-11-01 (56 years ago)
Launch vehicleUnknown
Launch site
Tyuratam Missile And Space Complex (TTMTR)
Object type
Payload
Rocket body
Debris
Shape & HBRUnknown
Radar Cross SectionSmall (<0.1 m²)

Expand to show TLE details & history

TLE from 1 day ago
0 COSMOS 252 DEB *
1 03686U 68097AD  24347.57921077  .00001938  00000-0  18341-2 0  9991
2 03686  62.2585  73.5139 0655084  49.3930 316.2198 13.14108320624158
Epoch: 2024-12-12T13:54Z
Definitive object data (Epoch: 2024-12-12T13:54:03.81Z)
Latitude-0.00007°
Longitude143.24047°
Altitude866.884 km
Speed7.585 km/s
True Right ascension04h 54m 03s
True Declination0° 00' 00"
Sunlit
Object was in full shadow at TLE epoch
Visualization TLE readout
Latitude51.84989°
Longitude-178.33453°
Altitude728.372 km
Speed7.733 km/s
Apparent Right ascension07h 37m 02s
Apparent Declination9° 08' 20"
Sunlit
Object is in full shadow
Visualization observer readout
Local Sidereal Time19:45:21
Azimuth2.721° NNE
Elevation-40.907°
Doppler factor1
Orbital elements
Apogee altitude1,703.134 km
Perigee altitude709.447 km
Semi-major axis7,584.427 km
Eccentricity0.0655084
Inclination62.2585°
RAAN73.5139°
Arg. of periapsis49.393°
True anomaly310.70905°
Mean anomaly316.2198°
Eccentric anomaly313.49708°
Mean motion3.28594 °/min
BSTAR0.0018341
Orbital period109.56 mins
Loading maneuver chart data...

COSMOS 252 DEB * Visibility forecast

Observer location: undefined°, undefined

Span
Click to sort rows by Start time (UTC) header in descending order
Start Az.
Max El. time (UTC)
Max El. Az.
Max El.
End time (UTC)
End Az.
4 mins2024-12-14 06:12:39.652Z140.454° SSE2024-12-14 06:14:39.652Z115.937° SE13.467°2024-12-14 06:16:39.652Z89.475° E
8 mins2024-12-14 08:03:39.652Z230.169° WSW2024-12-14 08:07:39.652Z321.568° NNW41.101°2024-12-14 08:11:39.652Z27.97° NE
5 mins2024-12-14 13:52:39.652Z15.979° NNE2024-12-14 13:54:39.652Z38.482° NE15.402°2024-12-14 13:57:39.652Z66.346° ENE
12 mins2024-12-14 15:43:39.652Z333.389° NNW2024-12-14 15:48:39.652Z64.349° ENE42.172°2024-12-14 15:55:39.652Z133.355° SE
10 mins2024-12-14 17:37:39.652Z287.625° WNW2024-12-14 17:41:39.652Z243.306° WSW24.017°2024-12-14 17:47:39.652Z194.197° SSW
|